Dewpoint
16 19 19 18 15 14 11 11 12 -1 7 12 16 23 32 31 30 28 28 28 29 29 30 30 30 31 32 32 33 35 36 37 38 38 38 39 44 44 55 53 50 49 47 45
15 17 17 14 13 11 11 13 15 18 21 25 26 33 31 30 30 29 27 28 28 28 28 29 30 30 31 32 32 33 33 34 36 37 37 36 36 38 40 42 41 40 39 39
5 14 11 6 12 12 21 25 25 23 25 29 31 30 28 28 29 28 28 27 28 28 28 29 29 29 30 31 32 30 31 32 33 35 35 36 35 34 34 35 36 35 35 35
10 13 -2 23 27 28 25 27 28 28 31 32 29 28 29 30 29 29 28 28 28 29 29 29 29 29 29 29 30 30 29 30 31 32 33 35 34 33 32 32 33 33 33 34
14 13 12 23 26 26 25 24 27 26 30 28 28 27 27 30 30 28 28 28 28 29 28 29 28 28 28 27 28 28 28 28 30 30 30 31 32 32 32 32 31 31 32 32
19 13 10 21 24 26 30 21 26 26 26 27 29 26 23 28 28 27 28 28 28 29 29 27 29 28 26 26 26 26 28 29 30 30 29 28 29 30 32 31 30 30 30 31
18 17 19 25 26 28 20 20 26 26 26 30 23 24 26 26 25 26 26 27 27 27 27 29 28 28 26 25 25 27 28 28 28 29 29 29 29 30 29 29 29 28 28 28
19 18 15 26 23 20 26 29 27 26 26 23 23 23 23 23 22 24 24 24 24 25 25 26 27 26 26 25 27 26 26 27 27 27 28 30 28 29 30 30 28 28 27 26
23 22 29 28 27 29 29 26 26 25 25 23 21 20 20 20 20 21 22 22 22 23 22 23 24 25 25 26 26 26 26 25 27 27 28 29 29 28 28 29 28 28 28 28
25 26 27 28 29 28 28 25 25 25 23 22 20 19 18 19 19 19 20 21 20 19 19 21 23 24 24 24 22 23 23 24 25 26 26 27 26 27 27 28 28 28 28 27
24 27 28 28 28 28 27 26 24 25 24 22 20 20 19 18 19 19 19 19 19 19 19 20 21 22 23 25 24 20 21 23 23 23 24 23 26 27 27 30 28 27 27 28
22 27 26 27 29 29 26 25 25 22 20 20 19 19 19 18 19 18 17 18 17 17 17 18 19 20 21 23 24 24 22 19 21 22 22 21 21 23 25 28 28 27 26 27
26 29 28 28 28 26 24 23 22 21 20 19 19 18 18 19 19 19 18 17 15 14 14 16 17 17 17 21 22 23 22 19 18 20 20 21 21 21 21 23 22 24 25 24
28 27 26 27 24 24 22 21 22 20 19 19 18 17 16 16 15 14 15 15 14 13 14 15 15 15 15 19 21 20 23 19 21 20 21 21 21 21 21 21 19 19 19 21
29 29 28 26 24 23 22 20 18 17 17 17 17 15 14 13 12 11 11 10 10 11 11 13 13 13 14 16 18 19 23 23 22 21 20 19 20 20 19 18 17 17 17 16
29 27 25 23 22 22 21 19 18 17 17 16 15 14 12 10 10 9 8 7 6 6 7 9 12 11 14 16 19 20 21 19 19 21 19 17 17 17 17 16 15 14 14 14
26 25 25 23 22 21 20 19 18 17 16 15 15 13 10 9 9 8 7 6 5 5 6 7 10 11 12 15 19 19 20 20 17 19 16 15 15 15 16 15 13 12 12 13
27 26 27 24 23 20 19 19 18 17 16 14 12 10 9 10 9 7 4 5 6 8 7 6 10 12 13 16 17 18 18 17 17 17 15 15 14 14 15 14 12 11 11 10
26 24 24 23 21 19 18 16 15 13 11 10 9 6 5 3 5 5 3 6 8 9 8 7 12 12 12 14 14 15 15 17 16 15 16 14 15 14 15 15 14 13 12 10
22 21 19 18 17 16 13 11 11 7 5 6 2 4 6 3 1 3 4 7 8 10 7 6 9 11 11 10 10 11 14 15 13 14 14 14 15 16 16 12 13 14 14 13
17 15 13 10 7 6 6 6 6 6 1 2 8 6 6 3 1 2 10 10 10 9 5 4 4 8 8 7 8 13 13 13 13 12 12 12 13 13 14 15 15 14 14 13
11 9 7 7 6 3 2 5 5 2 2 1 -2 -1 3 8 5 7 6 10 10 5 5 6 3 -1 6 6 8 11 10 10 11 11 11 11 11 11 11 12 12 13 13 13
9 9 8 7 9 7 5 5 4 5 5 5 5 7 10 12 12 12 10 10 10 8 9 10 2 -3 -2 11 11 11 10 10 10 10 10 9 8 9 10 10 10 11 11 11
10 10 9 8 7 6 5 6 6 8 7 8 8 6 9 14 15 13 13 8 4 6 10 10 8 1 -4 9 9 10 10 10 10 10 10 2 9 8 9 9 9 10 9 6
12 11 9 10 8 8 8 9 10 12 12 12 13 12 10 11 13 14 14 14 6 7 12 3 -1 -2 8 9 8 8 9 9 10 9 9 9 9 8 9 9 8 9 9 8
12 10 10 13 13 14 13 13 14 15 15 16 15 13 13 12 14 14 15 12 12 8 12 12 10 10 10 9 9 8 8 8 8 8 7 8 8 7 7 8 7 8 8 8
15 13 13 14 16 17 17 16 17 15 14 14 12 12 10 11 12 12 11 14 13 11 11 11 10 8 8 9 9 9 10 10 8 8 8 8 7 8 7 8 8 8 7 5
Lifted_Index
4 5 5 5 5 5 6 6 6 6 6 6 6 7 7 7 6 4 3 3 4 5 6 7 7 7 7 6 5 4 3 2 1 1 0 0 -0 -0 0 0 0 0 1 0
4 5 5 5 5 5 5 5 5 5 5 5 5 6 7 7 5 4 3 4 4 6 7 8 8 8 8 7 7 6 5 3 3 2 2 1 1 1 1 0 0 1 1 1
4 4 4 4 4 4 4 4 4 4 3 3 3 4 5 5 4 4 4 5 5 7 8 9 9 9 9 9 9 8 7 6 5 4 4 4 4 3 2 1 1 1 2 2
3 4 4 4 4 3 3 3 3 3 2 2 2 3 4 4 4 5 5 6 7 8 9 10 10 10 10 10 10 9 9 8 7 7 6 6 6 6 5 4 2 2 2 2
3 3 3 3 3 2 2 2 3 3 2 2 2 2 3 5 6 6 7 8 8 9 10 11 11 11 11 10 10 10 10 10 10 9 8 8 8 8 8 7 5 4 3 3
2 2 2 2 2 2 2 2 3 3 3 2 3 3 4 6 8 8 9 9 9 10 11 11 12 12 11 10 10 11 11 12 12 11 10 10 10 10 10 10 8 6 5 4
2 2 2 2 3 3 3 3 4 5 4 4 4 5 7 8 9 9 10 10 10 11 11 12 13 12 11 11 11 12 13 13 13 12 12 12 11 11 11 11 10 9 8 7
2 2 2 3 4 4 4 5 6 6 6 6 6 7 8 9 9 9 10 11 11 11 12 12 13 13 12 12 13 14 14 13 13 13 13 13 13 12 12 12 11 10 10 9
2 2 3 4 5 5 6 6 6 7 7 7 7 8 8 9 9 10 10 11 12 12 12 13 13 13 13 13 14 15 14 14 14 14 14 14 14 14 13 13 12 12 11 11
3 3 4 5 6 6 6 6 7 8 8 8 7 7 8 9 10 10 11 11 12 12 12 12 13 14 14 15 15 15 14 14 14 14 14 15 15 15 14 14 14 13 13 13
3 3 4 5 5 6 6 6 7 7 8 8 8 8 9 9 10 11 12 12 12 12 12 12 13 14 15 15 15 15 14 14 14 14 15 15 15 15 16 16 16 15 15 15
3 4 4 5 5 6 6 6 7 7 7 8 8 9 9 10 11 12 12 13 13 13 13 13 13 14 15 16 16 15 14 14 14 15 15 15 15 16 16 17 17 17 17 18
4 5 5 5 6 6 7 7 8 8 8 9 9 10 10 11 12 12 13 13 13 13 14 14 14 15 16 17 16 16 15 15 15 15 16 16 16 16 16 17 18 18 19 19
5 6 5 5 6 7 7 8 9 9 9 10 10 11 11 11 12 12 13 13 14 14 15 15 15 16 17 18 18 17 16 16 16 16 17 17 17 17 17 17 17 18 19 19
5 6 6 6 6 7 8 8 9 9 9 10 11 11 11 12 12 13 13 14 14 15 15 16 16 17 18 19 19 18 18 18 18 18 18 18 18 18 18 17 17 18 19 19
5 5 6 6 6 7 8 8 8 9 9 10 11 11 12 12 13 13 14 15 15 15 16 16 17 18 19 20 19 19 19 19 19 19 18 18 18 18 18 18 18 18 19 19
5 6 6 6 7 7 8 9 9 9 10 11 11 12 13 13 13 14 15 16 16 16 17 18 18 19 20 20 20 19 19 19 19 19 19 19 19 19 19 19 19 19 19 20
6 6 6 7 7 8 8 9 10 11 11 12 12 13 13 14 14 15 16 17 17 17 18 19 20 20 20 20 20 20 20 20 20 20 20 20 20 20 20 19 20 20 20 21
7 7 7 7 8 8 9 10 11 12 12 13 13 13 14 15 15 16 17 17 17 18 19 20 21 21 21 21 21 21 20 20 20 20 20 20 20 20 20 20 20 21 21 21
6 6 7 7 8 9 10 11 11 12 13 14 14 14 15 16 17 17 17 18 18 19 20 21 21 21 21 21 21 21 21 20 20 20 20 20 20 20 20 21 21 21 21 21
6 6 7 8 9 10 11 12 12 13 14 15 15 16 16 17 18 18 18 18 19 20 21 21 21 21 21 21 21 21 21 20 20 20 20 20 20 20 20 20 20 20 20 21
7 7 8 9 10 11 12 13 14 14 15 16 17 17 17 18 18 18 18 19 20 21 21 21 21 21 21 21 21 21 20 20 19 19 19 19 18 18 18 18 19 19 19 19
8 9 9 10 11 12 13 14 15 16 16 17 17 18 18 18 18 19 19 20 21 21 21 21 21 22 21 21 21 20 19 19 18 18 17 17 17 17 17 17 18 18 18 19
10 10 11 12 12 13 13 15 16 17 17 18 18 18 19 19 19 19 20 20 21 21 21 21 21 21 20 20 19 18 18 17 17 17 17 17 17 17 17 17 17 18 18 18
11 11 12 13 13 13 14 15 16 17 17 18 18 19 19 19 20 20 20 20 21 21 21 20 20 19 19 18 17 17 16 16 16 16 16 16 16 17 17 17 17 17 18 18
12 12 13 13 14 14 15 16 16 17 17 18 18 19 20 20 20 21 21 21 21 20 20 20 19 18 17 17 16 16 16 16 16 16 16 16 16 17 17 17 17 17 18 18
13 13 13 14 14 15 16 17 16 17 17 18 18 19 20 20 21 21 21 21 20 20 20 19 18 17 17 16 16 16 16 16 16 16 16 16 16 17 17 17 17 17 17 18